Location: Banksville Park
(38.5557°N, 75.1182°W)
Time: 15:54:15
(UTC+00:00)

Cosmos 468 Rocket - Pass Details

Date: 19 September 2020
Orbit: 745 x 779 km, 74.0° (Epoch: 31 October)

Event Time Altitude Azimuth Distance (km) Brightness Sun altitude
Exits shadow 09:24:05 13° 205° (SSW) 2,123 5.9 -16.6°
Maximum altitude 09:28:51 73° 289° (WNW) 812 3.9 -15.7°
Drops below altitude 10° 09:34:07 10° 15° (NNE) 2,323 6.9 -14.7°
Sets 09:36:31 0° 17° (NNE) 3,249 7.7 -14.3°
